Japanese version Home page |
Updated on December 16, 2022 |
Profile
|
Orbital ElementsEpoch 2020 Nov. 7.0 TT = JDT 2459160.5 T 2020 Nov. 14.28788 TT Rudenko q 5.2057495 (2000.0) P Q z +0.0232093 Peri. 139.88981 +0.69392962 +0.65166370 +/-0.0000000 Node 161.90867 -0.56351545 +0.22672914 e 0.8791783 Incl. 80.48627 +0.44823211 -0.72382893 From 100 observations 2020 Dec. 14-2021 Aug. 8, mean residual 0".6.
|
Magnitudes Graphm1 = 9.0 + 5 log d + 10.0 log r
|
The orbital elements are published on M.P.E.C. 2021-R75.
|